Location: Moscow
(55.7500°N, 37.5830°E)
Time: 03:27:16
(UTC+03:00)

Vanguard 3 - All Passes

Search period start: 30 November 2021 00:00
Search period end: 10 December 2021 00:00
Orbit: 509 x 3260 km, 33.3° (Epoch: 29 November)

Date Brightness Start Highest point End Pass type
(mag) Time Alt. Az. Time Alt. Az. Time Alt. Az.
30 Nov - 03:46:55 10° S 03:56:54 17° SSE 04:05:35 10° ESE visible
30 Nov - 05:55:55 10° SW 06:09:16 26° S 06:19:18 10° ESE visible
30 Nov - 08:09:40 10° WSW 08:21:16 25° SSW 08:29:29 10° SE daylight
30 Nov - 10:26:53 10° WSW 10:31:48 13° SW 10:35:51 10° SSW daylight
01 Dec - 02:37:00 10° SSE 02:41:57 11° SE 02:46:42 10° ESE visible
01 Dec - 04:40:52 10° SSW 04:54:04 24° SSE 05:04:46 10° ESE visible
01 Dec - 06:52:57 10° SW 07:06:33 28° S 07:16:21 10° SE visible
01 Dec - 09:08:21 10° WSW 09:18:00 21° SSW 09:25:04 10° SSE daylight
02 Dec - 03:27:09 10° S 03:38:50 20° SSE 03:49:09 10° ESE visible
02 Dec - 05:36:54 10° SW 05:51:24 29° S 06:02:32 10° ESE visible
02 Dec - 07:50:56 10° WSW 08:03:38 27° SSW 08:12:43 10° SE visible
02 Dec - 10:08:30 10° WSW 10:14:16 14° SW 10:19:00 10° SSW daylight
03 Dec - 02:15:47 10° SSE 02:23:48 14° SE 02:31:26 10° ESE visible
03 Dec - 04:21:45 10° SSW 04:36:02 26° SSE 04:47:56 10° ESE visible
03 Dec - 06:34:08 10° SW 06:48:44 30° S 06:59:31 10° SE visible
03 Dec - 08:49:46 10° WSW 09:00:22 21° SSW 09:08:11 10° SSE daylight
04 Dec - 03:07:49 10° SSW 03:20:40 22° SSE 03:32:19 10° ESE visible
04 Dec - 05:18:04 10° SW 05:33:25 31° S 05:45:34 10° ESE visible
04 Dec - 07:32:15 10° WSW 07:45:51 28° SSW 07:55:47 10° SSE visible
04 Dec - 09:50:09 10° WSW 09:56:35 14° SW 10:01:54 10° SSW daylight
05 Dec - 01:55:49 10° S 02:05:33 16° SE 02:15:01 10° ESE visible
05 Dec - 04:02:52 10° SSW 04:17:53 29° SSE 04:30:51 10° ESE visible
05 Dec - 06:15:27 10° WSW 06:30:47 31° S 06:42:29 10° SE visible
05 Dec - 08:31:13 10° WSW 08:42:34 22° SSW 08:51:08 10° SSE daylight
06 Dec - 02:48:52 10° SSW 03:02:25 24° SSE 03:15:11 10° ESE visible
06 Dec - 04:59:24 10° SW 05:15:18 32° S 05:28:25 10° ESE visible
06 Dec - 07:13:39 10° WSW 07:27:55 28° SSW 07:38:42 10° SSE visible
06 Dec - 09:31:52 10° WSW 09:38:46 14° SW 09:44:33 10° SSW daylight
07 Dec - 01:36:29 10° S 01:47:14 18° SE 01:58:03 10° ESE visible
07 Dec - 03:44:16 10° SW 03:59:39 30° SSE 04:13:34 10° ESE visible
07 Dec - 05:56:53 10° WSW 06:12:43 32° S 06:25:18 10° SE visible
07 Dec - 08:12:45 10° WSW 08:24:38 22° SSW 08:33:53 10° S daylight
08 Dec - 00:28:08 10° SE 00:32:33 11° SE 00:37:02 10° ESE visible
08 Dec - 02:30:13 10° SSW 02:44:05 26° SSE 02:57:47 10° ESE visible
08 Dec - 04:40:56 10° SW 04:57:06 34° S 05:11:05 10° ESE visible
08 Dec - 06:55:09 10° WSW 07:09:51 29° SSW 07:21:25 10° SSE visible
08 Dec - 09:13:42 10° WSW 09:20:50 14° SW 09:26:55 10° SSW daylight
09 Dec - 01:17:38 10° S 01:28:53 20° SE 01:40:41 10° ESE visible
09 Dec - 03:25:52 10° SW 03:41:20 32° SSE 03:56:05 10° ESE visible
09 Dec - 05:38:29 10° WSW 05:54:31 33° S 06:07:56 10° SE visible
09 Dec - 07:54:21 10° WSW 08:06:35 22° SW 08:16:25 10° S visible
